FDX13 ZBAA-RJTT

Flight info

Callsign FDX13
Flight time N/A
Altitude 32000
Route LULTA V9 VAPGU W34 ANRAT A326 DONVO G597 LANAT Y597 MIHOU Y38 MIDER Y71 XAC
Aircraft B737/M-VGDW/C

Departure

Time N/A
Airport Beijing Capital International Airport (ZBAA)

Arrival

Time 2026-04-30 19:10
Airport Tokyo Haneda International Airport (RJTT)
Time Latitude Longitude Altitude Speed Heading
2026-04-30 18:48 34.70802 139.47136 19500 ft 448 kts 101°
2026-04-30 18:48 34.70493 139.50895 18777 ft 445 kts 101°
2026-04-30 18:48 34.70202 139.54634 18034 ft 443 kts 100°
2026-04-30 18:49 34.69929 139.58297 17321 ft 437 kts 100°
2026-04-30 18:49 34.69650 139.61941 16620 ft 430 kts 100°
2026-04-30 18:49 34.69364 139.65533 15935 ft 423 kts 100°
2026-04-30 18:49 34.69084 139.69069 15260 ft 417 kts 100°
2026-04-30 18:50 34.68812 139.72556 14602 ft 411 kts 99°
2026-04-30 18:50 34.68543 139.75986 13934 ft 405 kts 99°
2026-04-30 18:50 34.68274 139.79364 13264 ft 398 kts 99°
2026-04-30 18:50 34.68035 139.82680 12574 ft 393 kts 96°
2026-04-30 18:51 34.68206 139.85975 12084 ft 387 kts 83°
2026-04-30 18:51 34.68919 139.89051 11980 ft 370 kts 70°
2026-04-30 18:51 34.70093 139.91740 11968 ft 352 kts 57°
2026-04-30 18:51 34.71659 139.93965 11973 ft 353 kts 44°
2026-04-30 18:52 34.73634 139.95771 11979 ft 351 kts 30°
2026-04-30 18:52 34.75831 139.96980 11967 ft 350 kts 17°
2026-04-30 18:52 34.78221 139.97617 11992 ft 350 kts
2026-04-30 18:52 34.80608 139.98211 11991 ft 354 kts 16°
2026-04-30 18:53 34.82859 139.99423 11995 ft 355 kts 29°
2026-04-30 18:53 34.84850 140.01201 11995 ft 355 kts 43°
2026-04-30 18:53 34.86476 140.03450 11996 ft 354 kts 57°
2026-04-30 18:53 34.87659 140.06065 11998 ft 351 kts 70°
2026-04-30 18:54 34.88339 140.08899 12000 ft 347 kts 84°
2026-04-30 18:54 34.88489 140.11802 12001 ft 341 kts 97°
2026-04-30 18:54 34.88318 140.14679 11998 ft 342 kts 99°
2026-04-30 18:54 34.88219 140.17579 12000 ft 343 kts 94°
2026-04-30 18:55 34.88351 140.20452 11998 ft 346 kts 87°
2026-04-30 18:55 34.89693 140.26110 12011 ft 353 kts 64°
2026-04-30 18:55 34.91079 140.28593 12008 ft 355 kts 50°
2026-04-30 18:56 34.94988 140.32190 12010 ft 353 kts 23°
2026-04-30 18:56 34.97282 140.33243 12010 ft 353 kts 17°
2026-04-30 18:56 34.99620 140.34152 12014 ft 351 kts 11°
2026-04-30 18:57 35.04416 140.34241 12017 ft 343 kts 343°
2026-04-30 18:57 35.06660 140.33327 12014 ft 337 kts 329°
2026-04-30 18:57 35.08609 140.31869 12018 ft 328 kts 316°
2026-04-30 18:58 35.11251 140.27620 10683 ft 316 kts 283°
2026-04-30 18:58 35.11622 140.24988 9866 ft 315 kts 265°
2026-04-30 18:58 35.11351 140.22337 8988 ft 316 kts 254°
2026-04-30 18:59 35.10602 140.16931 7272 ft 330 kts 261°
2026-04-30 19:00 35.11298 140.08431 5101 ft 337 kts 287°
2026-04-30 19:00 35.12203 140.05903 5004 ft 318 kts 293°
2026-04-30 19:00 35.13930 140.01373 5012 ft 254 kts 288°
2026-04-30 19:01 35.15509 139.98249 4972 ft 197 kts 326°
2026-04-30 19:01 35.16778 139.97750 4981 ft 194 kts
2026-04-30 19:02 35.19530 139.98102 4998 ft 202 kts
2026-04-30 19:02 35.22343 139.98220 5136 ft 214 kts
2026-04-30 19:03 35.25601 139.98224 5003 ft 236 kts 349°
2026-04-30 19:03 35.28446 139.96442 5010 ft 228 kts 324°
2026-04-30 19:04 35.31209 139.94384 4973 ft 234 kts 329°
2026-04-30 19:04 35.34089 139.92377 4386 ft 241 kts 329°
2026-04-30 19:05 35.34530 139.92062 4272 ft 242 kts 329°
2026-04-30 19:05 35.37484 139.89980 3665 ft 250 kts 330°
2026-04-30 19:06 35.40529 139.87833 3035 ft 254 kts 331°
2026-04-30 19:06 35.42067 139.86746 2715 ft 256 kts 331°
2026-04-30 19:06 35.44857 139.84782 2135 ft 206 kts 332°
2026-04-30 19:07 35.47044 139.83238 1602 ft 158 kts 333°
2026-04-30 19:07 35.47918 139.82612 1368 ft 131 kts 332°
2026-04-30 19:08 35.49413 139.81573 1025 ft 120 kts 334°
2026-04-30 19:08 35.50737 139.80640 740 ft 105 kts 335°
2026-04-30 19:08 35.51360 139.80182 608 ft 107 kts 333°
2026-04-30 19:09 35.52624 139.79298 327 ft 103 kts 331°
2026-04-30 19:09 35.53249 139.78855 195 ft 103 kts 330°
2026-04-30 19:09 35.53865 139.78417 67 ft 103 kts 329°
2026-04-30 19:10 35.54688 139.77836 29 ft 30 kts 330°
2026-04-30 19:10 35.54991 139.77650 28 ft 24 kts 347°
2026-04-30 19:11 35.55141 139.77632 26 ft 19 kts 11°
2026-04-30 19:11 35.55222 139.77737 27 ft 9 kts 60°
2026-04-30 19:11 35.55236 139.77812 25 ft 10 kts 98°
2026-04-30 19:12 35.55233 139.77897 28 ft 8 kts 76°
2026-04-30 19:12 35.55258 139.77947 29 ft 7 kts 57°
2026-04-30 19:12 35.55282 139.77995 27 ft 7 kts 63°
2026-04-30 19:13 35.55284 139.78022 29 ft 2 kts 118°
2026-04-30 19:13 35.55248 139.78054 28 ft 0 kts 149°
2026-04-30 19:13 35.55242 139.78059 26 ft 2 kts 148°
2026-04-30 19:14 35.55234 139.78065 28 ft 2 kts 148°
2026-04-30 19:14 35.55233 139.78066 28 ft 0 kts 149°